Satellite: AEROCUB3
Catalog number: 35005
Epoch time:      10189.83961455
Element set:     372
Inclination:      040.4709 deg
RA of node:       071.4797 deg
Eccentricity:    0.0019270
Arg of perigee:   214.8747 deg
Mean anomaly:     145.0800 deg
Mean motion:   15.52520464 rev/day
Decay rate:     2.0477e-04 rev/day^2
Epoch rev:            6411
Checksum:              290

Satellite: DRAGNSAT
Catalog number: 35690
Epoch time:      10076.22711312
Element set:     316
Inclination:      051.6170 deg
RA of node:       315.4586 deg
Eccentricity:    0.0004999
Arg of perigee:   310.9891 deg
Mean anomaly:     057.3269 deg
Mean motion:   16.42150010 rev/day
Decay rate:   5.715194e-02 rev/day^2
Epoch rev:            3656
Checksum:              289

Satellite: POLLUX
Catalog number: 35693
Epoch time:      10087.99866888
Element set:     352
Inclination:      051.6099 deg
RA of node:       254.5746 deg
Eccentricity:    0.0006270
Arg of perigee:   294.4866 deg
Mean anomaly:     097.5899 deg
Mean motion:   16.52338462 rev/day
Decay rate:  2.3496735e-01 rev/day^2
Epoch rev:            3839
Checksum:              384

Satellite: CASTOR
Catalog number: 35694
Epoch time:      10189.87826505
Element set:     538
Inclination:      051.6348 deg
RA of node:       083.6132 deg
Eccentricity:    0.0000444
Arg of perigee:   218.0385 deg
Mean anomaly:     142.0603 deg
Mean motion:   16.06859735 rev/day
Decay rate:     9.8115e-04 rev/day^2
Epoch rev:            5454
Checksum:              307

Satellite: METEOR-M
Catalog number: 35865
Epoch time:      10189.80873597
Element set:     453
Inclination:      098.7561 deg
RA of node:       243.4520 deg
Eccentricity:    0.0002329
Arg of perigee:   326.5986 deg
Mean anomaly:     033.5009 deg
Mean motion:   14.21830860 rev/day
Decay rate:       1.76e-06 rev/day^2
Epoch rev:            4179
Checksum:              314

Satellite: RS-38
Catalog number: 35869
Epoch time:      10189.70752958
Element set:     461
Inclination:      098.7557 deg
RA of node:       243.3863 deg
Eccentricity:    0.0004284
Arg of perigee:   313.1723 deg
Mean anomaly:     046.9049 deg
Mean motion:   14.21984690 rev/day
Decay rate:       1.77e-06 rev/day^2
Epoch rev:            4178
Checksum:              344

/EX


_______________________________________________
Via the Keps mailing list courtesy of AMSAT-NA
http://amsat.org/mailman/listinfo/keps

--- ViaMAIL!/WC v1.60d
 * Origin: Chowdanet (401-724-4410) telnet://chowdanet.com  (1:323/120)